sat.trackr.live / text

‹ back to catalog

UNKNOWN

NORAD 81964

UNKNOWN UNKNOWN UNKNOWN

§ Identity

Operator
Country
Launch date
Launch site
Launch vehicle
Mass (kg)
RCS (m²)

External: N2YO · Heavens-Above

§ Orbital elements

Epoch: 2026-09-16T10:55:43.974048Z

Period
103.16 min
Inclination
66.5836°
Eccentricity
0.0043858
Mean motion
13.95950091 rev/d
Perigee alt
875.9 km
Apogee alt
939.8 km
Semi-major
7,286.0 km
B*
1.5478e-4
RAAN
288.9771°
Arg perigee
263.5410°
Mean anomaly
96.0674°
Rev number
65,280

§ Raw data

UNKNOWN1 81964U          26259.45537007  .00000134  00000+0  15478-3 0  99982 81964  66.5836 288.9771 0043858 263.5410  96.0674 13.95950091652800

JSON: /api/v1/satellites/81964 · /tle

For live sub-satellite position, see the globe view (requires WebGL).

§ Visibility from observer

Set your observer location to see the next 7 days of passes ≥ 10°. The values pass through the URL so the page stays shareable.

No JS? Fill the form by hand. The geolocation button needs JavaScript.